When you browse on this site, cookies collect data to enhance your experience and personalize the content and advertising you see.
Visit our Privacy Policy to learn more. By continuing to use the site, you agree to this use of cookies and data.
  • In Lithuania
  • List of Countries
  • For 7 days
  • Water Temperature
  • Satellite Maps
  • Weather Map
  • Weather Widgets
  • user-avatar
    Login

    Hourly Weather Star'

    Today, 22 July, Monday

    Time Temperature Precipitation Wind Pressure Humidity
    00:00 +14°C° 0 mm 0 mps 746 mmHg 91%
    01:00 +14°C° 0 mm 0 mps 746 mmHg 92%
    02:00 +14°C° 0 mm 0 mps 746 mmHg 92%
    03:00 +14°C° 0 mm 0 mps 746 mmHg 92%
    04:00 +14°C° 0 mm 0 mps 746 mmHg 91%
    05:00 +14°C° 0 mm 0 mps 746 mmHg 91%
    06:00 +17°C° 0 mm 0 mps 746 mmHg 82%
    07:00 +21°C° 0 mm 1 mps 746 mmHg 74%
    08:00 +23°C° 0 mm 1 mps 746 mmHg 66%
    09:00 +24°C° 0 mm 1 mps 746 mmHg 60%
    10:00 +26°C° 0 mm 1 mps 745 mmHg 55%
    11:00 +27°C° 0 mm 1 mps 745 mmHg 49%
    12:00 +27°C° 0.1 mm 2 mps 745 mmHg 51%
    13:00 +27°C° 0.1 mm 2 mps 744 mmHg 54%
    14:00 +27°C° 0.1 mm 3 mps 744 mmHg 56%
    15:00 +25°C° 1 mm 2 mps 744 mmHg 69%
    16:00 +21°C° 1 mm 2 mps 743 mmHg 82%
    17:00 +19°C° 1 mm 2 mps 743 mmHg 95%
    18:00 +18°C° 0.3 mm 2 mps 743 mmHg 95%
    19:00 +18°C° 0.3 mm 2 mps 743 mmHg 96%
    20:00 +18°C° 0.3 mm 2 mps 742 mmHg 97%
    21:00 +17°C° 0 mm 2 mps 742 mmHg 97%
    22:00 +17°C° 0 mm 2 mps 742 mmHg 98%
    23:00 +17°C° 0 mm 2 mps 742 mmHg 98%

    Tomorrow, 23 July, Tuesday

    Time Temperature Precipitation Wind Pressure Humidity
    00:00 +17°C° 0 mm 2 mps 742 mmHg 98%
    01:00 +17°C° 0 mm 2 mps 742 mmHg 98%
    02:00 +17°C° 0 mm 2 mps 741 mmHg 99%
    03:00 +16°C° 0 mm 2 mps 741 mmHg 98%
    04:00 +16°C° 0 mm 2 mps 741 mmHg 98%
    05:00 +16°C° 0 mm 2 mps 741 mmHg 98%
    06:00 +16°C° 0 mm 2 mps 741 mmHg 95%
    07:00 +17°C° 0 mm 2 mps 741 mmHg 93%
    08:00 +18°C° 0 mm 2 mps 741 mmHg 90%
    09:00 +19°C° 0 mm 2 mps 741 mmHg 86%
    10:00 +19°C° 0 mm 3 mps 741 mmHg 81%
    11:00 +20°C° 0 mm 3 mps 741 mmHg 77%
    12:00 +20°C° 0 mm 3 mps 741 mmHg 75%
    13:00 +21°C° 0 mm 3 mps 741 mmHg 73%
    14:00 +21°C° 0 mm 3 mps 741 mmHg 71%
    15:00 +21°C° 0 mm 2 mps 741 mmHg 70%
    16:00 +23°C° 0 mm 2 mps 741 mmHg 70%
    17:00 +23°C° 0 mm 2 mps 741 mmHg 69%
    18:00 +21°C° 0 mm 2 mps 741 mmHg 76%
    19:00 +20°C° 0 mm 1 mps 741 mmHg 83%
    20:00 +19°C° 0 mm 1 mps 741 mmHg 90%
    21:00 +18°C° 0 mm 1 mps 741 mmHg 92%
    22:00 +16°C° 0 mm 1 mps 741 mmHg 94%
    23:00 +16°C° 0 mm 1 mps 741 mmHg 96%

    Day after tomorrow, 24 July, Wednesday

    Time Temperature Precipitation Wind Pressure Humidity
    00:00 +15°C° 0 mm 1 mps 741 mmHg 97%
    01:00 +14°C° 0 mm 0 mps 741 mmHg 97%
    02:00 +14°C° 0 mm 0 mps 741 mmHg 97%
    03:00 +14°C° 0 mm 0 mps 741 mmHg 97%
    04:00 +14°C° 0 mm 0 mps 741 mmHg 97%
    05:00 +14°C° 0 mm 0 mps 741 mmHg 97%
    06:00 +16°C° 0 mm 0 mps 742 mmHg 91%
    07:00 +20°C° 0 mm 1 mps 742 mmHg 86%
    08:00 +21°C° 0 mm 1 mps 742 mmHg 80%
    09:00 +21°C° 0.7 mm 1 mps 742 mmHg 81%
    10:00 +22°C° 0.7 mm 1 mps 742 mmHg 83%
    11:00 +21°C° 0.7 mm 2 mps 742 mmHg 84%
    12:00 +21°C° 0.8 mm 2 mps 742 mmHg 85%
    13:00 +21°C° 0.8 mm 2 mps 742 mmHg 86%
    14:00 +21°C° 0.8 mm 2 mps 742 mmHg 86%
    15:00 +20°C° 0.5 mm 2 mps 742 mmHg 87%
    16:00 +20°C° 0.5 mm 2 mps 742 mmHg 87%
    17:00 +20°C° 0.5 mm 2 mps 742 mmHg 88%
    18:00 +19°C° 0.3 mm 2 mps 742 mmHg 90%
    19:00 +19°C° 0.3 mm 1 mps 743 mmHg 92%
    20:00 +18°C° 0.3 mm 1 mps 743 mmHg 93%
    21:00 +18°C° 0 mm 1 mps 743 mmHg 94%
    22:00 +17°C° 0 mm 2 mps 743 mmHg 96%
    23:00 +16°C° 0 mm 2 mps 743 mmHg 97%

    25 July, Thursday

    Time Temperature Precipitation Wind Pressure Humidity
    00:00 +16°C° 0 mm 2 mps 743 mmHg 96%
    01:00 +17°C° 0 mm 2 mps 743 mmHg 96%
    02:00 +17°C° 0 mm 3 mps 743 mmHg 96%
    03:00 +17°C° 0.1 mm 3 mps 743 mmHg 96%
    04:00 +17°C° 0.1 mm 3 mps 744 mmHg 96%
    05:00 +17°C° 0.1 mm 3 mps 744 mmHg 96%
    06:00 +17°C° 0.4 mm 3 mps 744 mmHg 96%
    07:00 +17°C° 0.4 mm 4 mps 744 mmHg 96%
    08:00 +18°C° 0.4 mm 4 mps 745 mmHg 95%
    09:00 +19°C° 0.2 mm 4 mps 745 mmHg 91%
    10:00 +20°C° 0.2 mm 4 mps 745 mmHg 88%
    11:00 +21°C° 0.2 mm 4 mps 745 mmHg 84%
    12:00 +21°C° 0.8 mm 4 mps 745 mmHg 85%
    13:00 +22°C° 0.8 mm 4 mps 745 mmHg 87%
    14:00 +22°C° 0.8 mm 4 mps 745 mmHg 89%
    15:00 +22°C° 0.5 mm 3 mps 745 mmHg 89%
    16:00 +22°C° 0.5 mm 3 mps 746 mmHg 89%
    17:00 +22°C° 0.5 mm 3 mps 746 mmHg 89%
    18:00 +21°C° 0.4 mm 3 mps 746 mmHg 91%
    19:00 +20°C° 0.4 mm 2 mps 746 mmHg 93%
    20:00 +19°C° 0.4 mm 2 mps 746 mmHg 95%
    21:00 +18°C° 0 mm 2 mps 746 mmHg 95%
    22:00 +18°C° 0 mm 2 mps 747 mmHg 96%
    23:00 +17°C° 0 mm 2 mps 747 mmHg 96%

    26 July, Friday

    Time Temperature Precipitation Wind Pressure Humidity
    00:00 +17°C° 0 mm 2 mps 747 mmHg 96%
    01:00 +17°C° 0 mm 2 mps 747 mmHg 96%
    02:00 +17°C° 0 mm 2 mps 747 mmHg 96%
    03:00 +16°C° 0 mm 2 mps 747 mmHg 96%
    04:00 +16°C° 0 mm 2 mps 747 mmHg 95%
    05:00 +16°C° 0 mm 2 mps 747 mmHg 95%
    06:00 +17°C° 0 mm 3 mps 747 mmHg 89%
    07:00 +19°C° 0 mm 3 mps 747 mmHg 83%
    08:00 +21°C° 0 mm 3 mps 747 mmHg 78%
    09:00 +22°C° 0 mm 3 mps 747 mmHg 68%
    10:00 +25°C° 0 mm 3 mps 747 mmHg 59%
    11:00 +27°C° 0 mm 3 mps 747 mmHg 49%
    12:00 +27°C° 0 mm 4 mps 746 mmHg 49%
    13:00 +28°C° 0 mm 4 mps 746 mmHg 49%
    14:00 +28°C° 0 mm 4 mps 746 mmHg 49%
    15:00 +27°C° 0.1 mm 3 mps 746 mmHg 57%
    16:00 +26°C° 0.1 mm 3 mps 746 mmHg 65%
    17:00 +25°C° 0.1 mm 3 mps 745 mmHg 73%
    18:00 +22°C° 0 mm 3 mps 746 mmHg 76%
    19:00 +20°C° 0 mm 3 mps 746 mmHg 79%
    20:00 +19°C° 0 mm 3 mps 746 mmHg 82%
    21:00 +18°C° 0 mm 2 mps 746 mmHg 84%
    22:00 +17°C° 0 mm 2 mps 746 mmHg 86%
    23:00 +16°C° 0 mm 2 mps 746 mmHg 87%

    27 July, Saturday

    Time Temperature Precipitation Wind Pressure Humidity
    00:00 +15°C° 0 mm 2 mps 745 mmHg 88%
    01:00 +15°C° 0 mm 2 mps 745 mmHg 89%
    02:00 +14°C° 0 mm 2 mps 745 mmHg 89%
    03:00 +14°C° 0 mm 2 mps 745 mmHg 88%
    04:00 +15°C° 0 mm 2 mps 745 mmHg 86%
    05:00 +15°C° 0 mm 1 mps 745 mmHg 85%
    06:00 +16°C° 0 mm 1 mps 744 mmHg 82%
    07:00 +18°C° 0 mm 1 mps 744 mmHg 80%
    08:00 +19°C° 0 mm 1 mps 744 mmHg 77%
    09:00 +21°C° 0 mm 1 mps 744 mmHg 72%
    10:00 +23°C° 0 mm 2 mps 743 mmHg 68%
    11:00 +25°C° 0 mm 2 mps 743 mmHg 64%
    12:00 +25°C° 0.4 mm 2 mps 743 mmHg 67%
    13:00 +26°C° 0.4 mm 2 mps 742 mmHg 70%
    14:00 +26°C° 0.4 mm 3 mps 742 mmHg 73%
    15:00 +26°C° 0.6 mm 3 mps 741 mmHg 77%
    16:00 +25°C° 0.6 mm 3 mps 741 mmHg 81%
    17:00 +24°C° 0.6 mm 3 mps 740 mmHg 85%
    18:00 +22°C° 0.5 mm 3 mps 740 mmHg 89%
    19:00 +21°C° 0.5 mm 2 mps 740 mmHg 92%
    20:00 +20°C° 0.5 mm 2 mps 740 mmHg 95%
    21:00 +19°C° 0.3 mm 2 mps 740 mmHg 96%
    22:00 +19°C° 0.3 mm 2 mps 740 mmHg 97%
    23:00 +18°C° 0.3 mm 2 mps 740 mmHg 97%
    Show more